TITAN 3C TRANSTAGE R/B, 1863

Orbit data source: Space-Track

TITAN 3C TRANSTAGE R/B, 1863 is space debris in HEO originally from a launch on Tue, 21 Dec 1965 UTC launched from the Air Force Eastern Test Range (AFETR). Debris objects in space refer to the collection of defunct objects orbiting the Earth. Examples of debris include non-operational satellites, rocket bodies, and fragments generated from explosions, collisions, or faulty payload assembly.

Loading next visibility...
Identifier
1863, 1965-108A
Orbit
HEO
Country
Flag of USUS
Related business
Manufacturer
Martin Marietta
Mission
Spacecraft
Bus & Motor
TRANSTAGE, Unknown motor
Mass
~2,050 kg wet, 1,950 kg dry
Launch date (UTC)
1965-12-21 (61 years ago)
Launch vehicle
Unknown
Launch site
Air Force Eastern Test Range (AFETR)
Object type
Payload
Rocket body
Debris
Shape & HBR
CYL + 2 NOZZLE, 2.3 m
Radar Cross Section
Large (>1 m²)

Expand to show TLE details & history
Last TLE update: 1 day ago

TLE from 1 day ago
0 TITAN 3C TRANSTAGE R/B
1 01863U 65108A   26252.97805620  .00001310  00000-0  71873-3 0  9996
2 01863  26.7495 156.8476 5991642 222.0138  71.9592  4.00482421371766
Epoch: 2026-09-09T23:28Z
TLE epoch observation values (Epoch: 2026-09-09T23:28:24.055Z)
Latitude
0.00016°
Longitude
175.76413°
Altitude
12,995.506 km
Speed
4.166 km/s
True Right ascension
10h 27m 32s
True Declination
0° 00' 01"
Sunlit
Object was in daylight at epoch
Visualization orbit readout
Latitude
Unknown
Longitude
Unknown
Altitude
Unknown
Speed
Unknown
Apparent Right ascension
Unknown
Apparent Declination
Unknown
Sunlit
N/A
Visualization observer readout
Local Sidereal Time
19:04:32
Azimuth
Unknown
Elevation
Unknown
Doppler factor
Unknown
Orbital elements
Apogee altitude
20,413.464 km
Perigee altitude
337.267 km
Semi-major axis
16,753.502 km
Eccentricity
0.59916
Inclination
26.7495°
RAAN
156.8476°
Arg. of periapsis
222.0138°
True anomaly
138.04136°
Mean anomaly
71.9592°
Eccentric anomaly
105.103°
Mean motion
1.00089 °/min
Orbital period
359.68 mins
BSTAR
0.00071873
Loading maneuver chart data...
Computing Atmospheric mass density...

Documentation

Showing up to 5 results
|